Airfield :
LOGIN :

Register | Disclaimer

   EN    FR    IT 

 










Legend :    VFR   Marginal VFR   IFR   Intensive IFR   Very Intensive IFR
Visi :
Ceiling :
>= 8 km
>= 3000ft
5 to 8 km
1000 to 3000 ft
1500m to 5 km
500 to 1000 ft
800 to 1500m
200 to 500 ft
< 800m
< 200 ft
Symbols :   Thunderstorms  Fog  Heavy snow  Heavy precipitations  Wind > 20 kt
SIGMETs :     Misc.  Thunderstorms  Icing  Turbulence  Mountain Waves  Volcanic Ashes






- Airport Elevation : 16 ft
- IATA code : AAE


DABB - Annaba-Rabah Bitat

CURRENT METAR :
  • 052000Z 06008KT 8000 FEW016 14/12 Q1018

EXPIRED METARs :
  • 051900Z 06009KT 8000 FEW033 14/13 Q1017
  • 051800Z 06009KT 8000 FEW023TCU 14/12 Q1017

TAF TAF DABB
Valid from the 05 at 18:00 until the 06 at 18:00 UTC


051700Z 0518/0618 04011KT 9999 FEW033 SCT100
PROB40
TEMPO 0518/0524 FEW026TCU
PROB30
TEMPO 0518/0521 5000 -RA
BECMG 0520/0522 24007KT
TEMPO 0600/0609 2000 BR BKN008
PROB40
TEMPO 0601/0608 0300 FG BKN003
PROB30
TEMPO 0612/0618 FEW026TCU



MET'MAP, your aeronautical weather chart ! - Copyright ORBIFLY December 2007 - Disclaimer

ORBIFLY MET'MAP TEAM :

Programming & Development : Alexandra Zaïnal
Concept & original design : Baudouin d'Aumeries
Assistance for programming : Marc-Olivier Méhu
Technical & hardware support : Manuel Goepfert

Contact : metmap@orbifly.com




SOURCES & CREDITS :

   NOAA